Time,TemperatureF,DewpointF,PressureIn,WindDirection,WindDirectionDegrees,WindSpeedMPH,WindSpeedGustMPH,Humidity,HourlyPrecipIn,Conditions,Clouds,dailyrainin,SoftwareType,DateUTC
2013-09-27 00:01:00,56.0,53.0,29.60,NE,45,2.0,9.0,92,0.00,,,0.00,Rainwise IP-100,2013-09-27 04:01:00,
2013-09-27 00:06:00,56.0,53.0,29.60,North,360,3.0,8.0,92,0.00,,,0.00,Rainwise IP-100,2013-09-27 04:06:00,
2013-09-27 00:11:00,56.0,53.0,29.59,NE,45,0.0,7.0,92,0.00,,,0.00,Rainwise IP-100,2013-09-27 04:11:00,
2013-09-27 00:16:00,56.0,53.0,29.59,NE,45,4.0,7.0,91,0.00,,,0.00,Rainwise IP-100,2013-09-27 04:16:00,
2013-09-27 00:21:00,56.0,53.0,29.60,North,360,5.0,7.0,91,0.00,,,0.00,Rainwise IP-100,2013-09-27 04:21:00,
2013-09-27 00:26:00,55.0,53.0,29.60,North,360,1.0,5.0,92,0.00,,,0.00,Rainwise IP-100,2013-09-27 04:26:00,
2013-09-27 00:31:00,55.0,53.0,29.60,NNW,337,3.0,6.0,92,0.00,,,0.00,Rainwise IP-100,2013-09-27 04:31:00,
2013-09-27 00:36:00,55.0,53.0,29.60,North,360,2.0,6.0,92,0.00,,,0.00,Rainwise IP-100,2013-09-27 04:36:00,
2013-09-27 00:41:00,55.0,53.0,29.60,NNE,22,5.0,6.0,91,0.00,,,0.00,Rainwise IP-100,2013-09-27 04:41:00,
2013-09-27 00:46:00,55.0,53.0,29.60,NNW,337,3.0,6.0,91,0.00,,,0.00,Rainwise IP-100,2013-09-27 04:46:00,
2013-09-27 00:51:00,55.0,53.0,29.60,North,360,3.0,6.0,91,0.00,,,0.00,Rainwise IP-100,2013-09-27 04:51:00,
2013-09-27 00:56:00,55.0,53.0,29.60,NNE,22,8.0,8.0,91,0.00,,,0.00,Rainwise IP-100,2013-09-27 04:56:00,
2013-09-27 01:01:00,55.0,53.0,29.61,NNE,22,3.0,8.0,91,0.00,,,0.00,Rainwise IP-100,2013-09-27 05:01:00,
2013-09-27 01:06:00,55.0,53.0,29.61,ENE,67,3.0,7.0,91,0.00,,,0.00,Rainwise IP-100,2013-09-27 05:06:00,
2013-09-27 01:11:00,55.0,53.0,29.61,NW,315,2.0,6.0,91,0.00,,,0.00,Rainwise IP-100,2013-09-27 05:11:00,
2013-09-27 01:16:00,55.0,53.0,29.61,NNW,337,2.0,6.0,91,0.00,,,0.00,Rainwise IP-100,2013-09-27 05:16:00,
2013-09-27 01:21:00,55.0,53.0,29.61,North,360,1.0,4.0,91,0.00,,,0.00,Rainwise IP-100,2013-09-27 05:21:00,
2013-09-27 01:26:00,55.0,53.0,29.61,NNW,337,1.0,5.0,91,0.00,,,0.00,Rainwise IP-100,2013-09-27 05:26:00,
2013-09-27 01:31:00,55.0,53.0,29.61,NNW,337,2.0,3.0,91,0.00,,,0.00,Rainwise IP-100,2013-09-27 05:31:00,
2013-09-27 01:36:00,55.0,53.0,29.61,NNW,337,2.0,4.0,91,0.00,,,0.00,Rainwise IP-100,2013-09-27 05:36:00,
2013-09-27 01:41:00,55.0,53.0,29.61,North,360,2.0,6.0,91,0.00,,,0.00,Rainwise IP-100,2013-09-27 05:41:00,
2013-09-27 01:46:00,55.0,53.0,29.61,North,360,0.0,4.0,91,0.00,,,0.00,Rainwise IP-100,2013-09-27 05:46:00,
2013-09-27 01:51:00,55.0,53.0,29.61,North,360,0.0,3.0,92,0.00,,,0.00,Rainwise IP-100,2013-09-27 05:51:00,
2013-09-27 01:56:00,55.0,53.0,29.61,NNW,337,1.0,6.0,92,0.00,,,0.00,Rainwise IP-100,2013-09-27 05:56:00,
2013-09-27 02:01:00,55.0,53.0,29.61,NNW,337,0.0,3.0,93,0.00,,,0.00,Rainwise IP-100,2013-09-27 06:01:00,
2013-09-27 02:06:00,55.0,53.0,29.61,NNW,337,0.0,1.0,93,0.00,,,0.00,Rainwise IP-100,2013-09-27 06:06:00,
2013-09-27 02:11:00,54.0,52.0,29.61,NNW,337,1.0,2.0,93,0.00,,,0.00,Rainwise IP-100,2013-09-27 06:11:00,
2013-09-27 02:16:00,54.0,52.0,29.61,NNW,337,0.0,3.0,94,0.00,,,0.00,Rainwise IP-100,2013-09-27 06:16:00,
2013-09-27 02:21:00,54.0,52.0,29.62,NNW,337,2.0,4.0,94,0.00,,,0.00,Rainwise IP-100,2013-09-27 06:21:00,
2013-09-27 02:26:00,54.0,52.0,29.62,NNW,337,0.0,4.0,94,0.00,,,0.00,Rainwise IP-100,2013-09-27 06:26:00,
2013-09-27 02:31:00,54.0,52.0,29.61,NNW,337,0.0,4.0,94,0.00,,,0.00,Rainwise IP-100,2013-09-27 06:31:00,
2013-09-27 02:36:00,54.0,52.0,29.61,NNW,337,0.0,2.0,94,0.00,,,0.00,Rainwise IP-100,2013-09-27 06:36:00,
2013-09-27 02:41:00,54.0,52.0,29.61,NNW,337,0.0,1.0,94,0.00,,,0.00,Rainwise IP-100,2013-09-27 06:41:00,
2013-09-27 02:46:00,54.0,52.0,29.61,NNW,337,0.0,1.0,94,0.00,,,0.00,Rainwise IP-100,2013-09-27 06:46:00,
2013-09-27 02:51:00,54.0,52.0,29.61,NNW,337,0.0,2.0,94,0.00,,,0.00,Rainwise IP-100,2013-09-27 06:51:00,
2013-09-27 02:56:00,54.0,52.0,29.61,NNW,337,0.0,2.0,94,0.00,,,0.00,Rainwise IP-100,2013-09-27 06:56:00,
2013-09-27 03:01:00,54.0,52.0,29.61,NNW,337,1.0,3.0,94,0.00,,,0.00,Rainwise IP-100,2013-09-27 07:01:00,
2013-09-27 03:06:00,54.0,53.0,29.61,NNW,337,0.0,2.0,95,0.00,,,0.00,Rainwise IP-100,2013-09-27 07:06:00,
2013-09-27 03:11:00,54.0,53.0,29.61,NNW,337,0.0,1.0,95,0.00,,,0.00,Rainwise IP-100,2013-09-27 07:11:00,
2013-09-27 03:16:00,54.0,53.0,29.61,NW,315,0.0,4.0,95,0.00,,,0.00,Rainwise IP-100,2013-09-27 07:16:00,
2013-09-27 03:21:00,54.0,53.0,29.61,NNW,337,1.0,2.0,95,0.00,,,0.00,Rainwise IP-100,2013-09-27 07:21:00,
2013-09-27 03:26:00,54.0,53.0,29.61,NW,315,2.0,5.0,95,0.00,,,0.00,Rainwise IP-100,2013-09-27 07:26:00,
2013-09-27 03:31:00,54.0,53.0,29.61,NW,315,2.0,4.0,95,0.00,,,0.00,Rainwise IP-100,2013-09-27 07:31:00,
2013-09-27 03:36:00,54.0,53.0,29.61,NW,315,0.0,3.0,95,0.00,,,0.00,Rainwise IP-100,2013-09-27 07:36:00,
2013-09-27 03:41:00,54.0,53.0,29.61,NW,315,2.0,0.0,96,0.00,,,0.00,Rainwise IP-100,2013-09-27 07:41:00,
2013-09-27 03:46:00,54.0,53.0,29.61,West,270,4.0,4.0,95,0.00,,,0.00,Rainwise IP-100,2013-09-27 07:46:00,
2013-09-27 03:51:00,54.0,53.0,29.61,West,270,0.0,5.0,95,0.00,,,0.00,Rainwise IP-100,2013-09-27 07:51:00,
2013-09-27 03:56:00,54.0,53.0,29.61,West,270,2.0,3.0,95,0.00,,,0.00,Rainwise IP-100,2013-09-27 07:56:00,
2013-09-27 04:01:00,54.0,53.0,29.61,West,270,1.0,4.0,95,0.00,,,0.00,Rainwise IP-100,2013-09-27 08:01:00,
2013-09-27 04:06:00,54.0,53.0,29.61,West,270,0.0,4.0,95,0.00,,,0.00,Rainwise IP-100,2013-09-27 08:06:00,
2013-09-27 04:11:00,54.0,53.0,29.61,West,270,1.0,1.0,96,0.00,,,0.00,Rainwise IP-100,2013-09-27 08:11:00,
2013-09-27 04:16:00,54.0,53.0,29.61,West,270,3.0,3.0,96,0.00,,,0.00,Rainwise IP-100,2013-09-27 08:16:00,
2013-09-27 04:21:00,54.0,53.0,29.61,West,270,2.0,4.0,96,0.00,,,0.00,Rainwise IP-100,2013-09-27 08:21:00,
2013-09-27 04:26:00,54.0,53.0,29.61,West,270,2.0,3.0,96,0.00,,,0.00,Rainwise IP-100,2013-09-27 08:26:00,
2013-09-27 04:31:00,54.0,53.0,29.62,West,270,2.0,4.0,96,0.00,,,0.00,Rainwise IP-100,2013-09-27 08:31:00,
2013-09-27 04:36:00,54.0,53.0,29.62,West,270,2.0,4.0,97,0.00,,,0.00,Rainwise IP-100,2013-09-27 08:36:00,
2013-09-27 04:41:00,54.0,53.0,29.62,WNW,292,2.0,4.0,96,0.00,,,0.00,Rainwise IP-100,2013-09-27 08:41:00,
2013-09-27 04:46:00,54.0,53.0,29.62,West,270,1.0,4.0,96,0.00,,,0.00,Rainwise IP-100,2013-09-27 08:46:00,
2013-09-27 04:51:00,54.0,53.0,29.62,WNW,292,3.0,6.0,96,0.00,,,0.00,Rainwise IP-100,2013-09-27 08:51:00,
2013-09-27 04:56:00,54.0,53.0,29.62,WNW,292,1.0,4.0,96,0.00,,,0.00,Rainwise IP-100,2013-09-27 08:56:00,
2013-09-27 05:01:00,54.0,53.0,29.62,WNW,292,2.0,3.0,96,0.00,,,0.00,Rainwise IP-100,2013-09-27 09:01:00,
2013-09-27 05:06:00,54.0,53.0,29.62,WNW,292,0.0,2.0,95,0.00,,,0.00,Rainwise IP-100,2013-09-27 09:06:00,
2013-09-27 05:11:00,54.0,53.0,29.63,WNW,292,2.0,3.0,95,0.00,,,0.00,Rainwise IP-100,2013-09-27 09:11:00,
2013-09-27 05:16:00,54.0,53.0,29.63,WNW,292,0.0,2.0,96,0.00,,,0.00,Rainwise IP-100,2013-09-27 09:16:00,
2013-09-27 05:21:00,54.0,53.0,29.63,WNW,292,2.0,3.0,96,0.00,,,0.00,Rainwise IP-100,2013-09-27 09:21:00,
2013-09-27 05:26:00,54.0,53.0,29.63,WNW,292,2.0,4.0,96,0.00,,,0.00,Rainwise IP-100,2013-09-27 09:26:00,
2013-09-27 05:31:00,54.0,53.0,29.63,WNW,292,1.0,4.0,96,0.00,,,0.00,Rainwise IP-100,2013-09-27 09:31:00,
2013-09-27 05:36:00,54.0,53.0,29.63,WNW,292,0.0,3.0,96,0.00,,,0.00,Rainwise IP-100,2013-09-27 09:36:00,
2013-09-27 05:41:00,54.0,53.0,29.63,WNW,292,1.0,3.0,95,0.00,,,0.00,Rainwise IP-100,2013-09-27 09:41:00,
2013-09-27 05:46:00,54.0,53.0,29.63,WNW,292,1.0,3.0,95,0.00,,,0.00,Rainwise IP-100,2013-09-27 09:46:00,
2013-09-27 05:51:00,54.0,53.0,29.64,WNW,292,2.0,4.0,96,0.00,,,0.00,Rainwise IP-100,2013-09-27 09:51:00,
2013-09-27 05:56:00,54.0,53.0,29.64,WNW,292,0.0,2.0,96,0.00,,,0.00,Rainwise IP-100,2013-09-27 09:56:00,
2013-09-27 06:01:00,54.0,53.0,29.64,WNW,292,0.0,3.0,96,0.00,,,0.00,Rainwise IP-100,2013-09-27 10:01:00,
2013-09-27 06:06:00,54.0,53.0,29.64,WNW,292,1.0,3.0,96,0.00,,,0.00,Rainwise IP-100,2013-09-27 10:06:00,
2013-09-27 06:11:00,54.0,53.0,29.64,WNW,292,1.0,2.0,95,0.00,,,0.00,Rainwise IP-100,2013-09-27 10:11:00,
2013-09-27 06:16:00,54.0,53.0,29.64,WNW,292,3.0,3.0,96,0.00,,,0.00,Rainwise IP-100,2013-09-27 10:16:00,
2013-09-27 06:21:00,54.0,53.0,29.64,WNW,292,0.0,3.0,96,0.00,,,0.00,Rainwise IP-100,2013-09-27 10:21:00,
2013-09-27 06:26:00,54.0,53.0,29.64,WNW,292,1.0,2.0,96,0.00,,,0.00,Rainwise IP-100,2013-09-27 10:26:00,
2013-09-27 06:31:00,54.0,53.0,29.65,WNW,292,0.0,3.0,97,0.00,,,0.00,Rainwise IP-100,2013-09-27 10:31:00,
2013-09-27 06:36:00,54.0,53.0,29.65,WNW,292,0.0,3.0,97,0.00,,,0.00,Rainwise IP-100,2013-09-27 10:36:00,
2013-09-27 06:41:00,54.0,53.0,29.65,West,270,0.0,3.0,97,0.00,,,0.00,Rainwise IP-100,2013-09-27 10:41:00,
2013-09-27 06:46:00,54.0,53.0,29.65,West,270,0.0,3.0,97,0.00,,,0.00,Rainwise IP-100,2013-09-27 10:46:00,
2013-09-27 06:51:00,54.0,53.0,29.65,West,270,1.0,2.0,97,0.00,,,0.00,Rainwise IP-100,2013-09-27 10:51:00,
2013-09-27 06:56:00,54.0,53.0,29.65,West,270,0.0,3.0,97,0.00,,,0.00,Rainwise IP-100,2013-09-27 10:56:00,
2013-09-27 07:01:00,54.0,53.0,29.65,West,270,0.0,2.0,97,0.00,,,0.00,Rainwise IP-100,2013-09-27 11:01:00,
2013-09-27 07:06:00,54.0,53.0,29.65,WNW,292,1.0,4.0,96,0.00,,,0.00,Rainwise IP-100,2013-09-27 11:06:00,
2013-09-27 07:11:00,54.0,53.0,29.66,WNW,292,1.0,2.0,97,0.00,,,0.00,Rainwise IP-100,2013-09-27 11:11:00,
2013-09-27 07:16:00,54.0,53.0,29.66,WNW,292,1.0,2.0,97,0.00,,,0.00,Rainwise IP-100,2013-09-27 11:16:00,
2013-09-27 07:21:00,54.0,53.0,29.66,WNW,292,1.0,3.0,97,0.00,,,0.00,Rainwise IP-100,2013-09-27 11:21:00,
2013-09-27 07:26:00,54.0,53.0,29.66,West,270,2.0,6.0,96,0.00,,,0.00,Rainwise IP-100,2013-09-27 11:26:00,
2013-09-27 07:31:00,54.0,53.0,29.66,West,270,0.0,4.0,97,0.00,,,0.00,Rainwise IP-100,2013-09-27 11:31:00,
2013-09-27 07:36:00,54.0,53.0,29.66,NW,315,0.0,5.0,97,0.00,,,0.00,Rainwise IP-100,2013-09-27 11:36:00,
2013-09-27 07:41:00,54.0,53.0,29.66,NW,315,2.0,3.0,97,0.00,,,0.00,Rainwise IP-100,2013-09-27 11:41:00,
2013-09-27 07:46:00,54.0,53.0,29.66,WNW,292,1.0,3.0,96,0.00,,,0.00,Rainwise IP-100,2013-09-27 11:46:00,
2013-09-27 07:51:00,55.0,54.0,29.66,WNW,292,1.0,5.0,96,0.00,,,0.00,Rainwise IP-100,2013-09-27 11:51:00,
2013-09-27 07:56:00,55.0,54.0,29.66,WNW,292,0.0,5.0,96,0.00,,,0.00,Rainwise IP-100,2013-09-27 11:56:00,
2013-09-27 08:01:00,55.0,54.0,29.67,WNW,292,1.0,6.0,96,0.00,,,0.00,Rainwise IP-100,2013-09-27 12:01:00,
2013-09-27 08:06:00,55.0,54.0,29.67,NNW,337,0.0,6.0,96,0.00,,,0.00,Rainwise IP-100,2013-09-27 12:06:00,
2013-09-27 08:11:00,55.0,54.0,29.67,West,270,1.0,4.0,95,0.00,,,0.00,Rainwise IP-100,2013-09-27 12:11:00,
2013-09-27 08:16:00,55.0,54.0,29.67,North,360,0.0,4.0,95,0.00,,,0.00,Rainwise IP-100,2013-09-27 12:16:00,
2013-09-27 08:21:00,55.0,53.0,29.68,ENE,67,3.0,5.0,94,0.00,,,0.00,Rainwise IP-100,2013-09-27 12:21:00,
2013-09-27 08:26:00,56.0,54.0,29.68,NNE,22,2.0,6.0,93,0.00,,,0.00,Rainwise IP-100,2013-09-27 12:26:00,
2013-09-27 08:31:00,56.0,53.0,29.68,NNE,22,4.0,6.0,92,0.00,,,0.00,Rainwise IP-100,2013-09-27 12:31:00,
2013-09-27 08:36:00,56.0,54.0,29.68,NNW,337,1.0,5.0,93,0.00,,,0.00,Rainwise IP-100,2013-09-27 12:36:00,
2013-09-27 08:41:00,56.0,54.0,29.68,NNW,337,1.0,4.0,93,0.00,,,0.00,Rainwise IP-100,2013-09-27 12:41:00,
2013-09-27 08:46:00,56.0,54.0,29.68,NNW,337,0.0,4.0,95,0.00,,,0.00,Rainwise IP-100,2013-09-27 12:46:00,
2013-09-27 08:51:00,56.0,54.0,29.69,NNW,337,3.0,3.0,94,0.00,,,0.00,Rainwise IP-100,2013-09-27 12:51:00,
2013-09-27 08:56:00,56.0,54.0,29.69,NNW,337,2.0,4.0,94,0.00,,,0.00,Rainwise IP-100,2013-09-27 12:56:00,
2013-09-27 09:01:00,57.0,55.0,29.68,NNW,337,2.0,6.0,94,0.00,,,0.00,Rainwise IP-100,2013-09-27 13:01:00,
2013-09-27 09:06:00,57.0,55.0,29.68,NNW,337,1.0,3.0,94,0.00,,,0.00,Rainwise IP-100,2013-09-27 13:06:00,
2013-09-27 09:11:00,57.0,54.0,29.68,NNW,337,3.0,4.0,92,0.00,,,0.00,Rainwise IP-100,2013-09-27 13:11:00,
2013-09-27 09:16:00,58.0,56.0,29.68,NNW,337,3.0,5.0,92,0.00,,,0.00,Rainwise IP-100,2013-09-27 13:16:00,
2013-09-27 09:21:00,58.0,55.0,29.69,North,360,3.0,6.0,90,0.00,,,0.00,Rainwise IP-100,2013-09-27 13:21:00,
2013-09-27 09:26:00,58.0,55.0,29.69,NNW,337,2.0,5.0,90,0.00,,,0.00,Rainwise IP-100,2013-09-27 13:26:00,
2013-09-27 09:31:00,59.0,54.0,29.69,NNE,22,5.0,7.0,86,0.00,,,0.00,Rainwise IP-100,2013-09-27 13:31:00,
2013-09-27 09:36:00,59.0,55.0,29.69,NNE,22,1.0,8.0,88,0.00,,,0.00,Rainwise IP-100,2013-09-27 13:36:00,
2013-09-27 09:41:00,59.0,54.0,29.69,NE,45,6.0,9.0,85,0.00,,,0.00,Rainwise IP-100,2013-09-27 13:41:00,
2013-09-27 09:46:00,59.0,54.0,29.69,NNW,337,7.0,9.0,84,0.00,,,0.00,Rainwise IP-100,2013-09-27 13:46:00,
2013-09-27 09:51:00,59.0,54.0,29.69,NNW,337,7.0,10.0,84,0.00,,,0.00,Rainwise IP-100,2013-09-27 13:51:00,
2013-09-27 09:56:00,60.0,54.0,29.69,NW,315,4.0,8.0,83,0.00,,,0.00,Rainwise IP-100,2013-09-27 13:56:00,
2013-09-27 10:01:00,60.0,54.0,29.69,North,360,7.0,11.0,81,0.00,,,0.00,Rainwise IP-100,2013-09-27 14:01:00,
2013-09-27 10:06:00,60.0,54.0,29.69,NNE,22,9.0,12.0,80,0.00,,,0.00,Rainwise IP-100,2013-09-27 14:06:00,
2013-09-27 10:11:00,60.0,54.0,29.69,ENE,67,10.0,10.0,81,0.00,,,0.00,Rainwise IP-100,2013-09-27 14:11:00,
2013-09-27 10:16:00,60.0,54.0,29.69,NNW,337,6.0,12.0,82,0.00,,,0.00,Rainwise IP-100,2013-09-27 14:16:00,
2013-09-27 10:21:00,60.0,53.0,29.69,North,360,6.0,12.0,79,0.00,,,0.00,Rainwise IP-100,2013-09-27 14:21:00,
2013-09-27 10:26:00,60.0,54.0,29.69,North,360,4.0,10.0,80,0.00,,,0.00,Rainwise IP-100,2013-09-27 14:26:00,
2013-09-27 10:31:00,60.0,53.0,29.70,NE,45,9.0,11.0,79,0.00,,,0.00,Rainwise IP-100,2013-09-27 14:31:00,
2013-09-27 10:36:00,61.0,54.0,29.70,NNW,337,4.0,13.0,80,0.00,,,0.00,Rainwise IP-100,2013-09-27 14:36:00,
2013-09-27 10:41:00,61.0,54.0,29.69,NW,315,7.0,11.0,78,0.00,,,0.00,Rainwise IP-100,2013-09-27 14:41:00,
2013-09-27 10:46:00,61.0,54.0,29.69,North,360,9.0,12.0,77,0.00,,,0.00,Rainwise IP-100,2013-09-27 14:46:00,
2013-09-27 10:51:00,61.0,54.0,29.70,North,360,9.0,13.0,79,0.00,,,0.00,Rainwise IP-100,2013-09-27 14:51:00,
2013-09-27 10:56:00,61.0,54.0,29.70,NNE,22,7.0,12.0,78,0.00,,,0.00,Rainwise IP-100,2013-09-27 14:56:00,
2013-09-27 11:01:00,61.0,54.0,29.70,NW,315,2.0,11.0,79,0.00,,,0.00,Rainwise IP-100,2013-09-27 15:01:00,
2013-09-27 11:06:00,61.0,54.0,29.70,ENE,67,9.0,10.0,78,0.00,,,0.00,Rainwise IP-100,2013-09-27 15:06:00,
2013-09-27 11:11:00,61.0,54.0,29.69,ENE,67,4.0,12.0,80,0.00,,,0.00,Rainwise IP-100,2013-09-27 15:11:00,
2013-09-27 11:16:00,62.0,54.0,29.69,NE,45,5.0,11.0,77,0.00,,,0.00,Rainwise IP-100,2013-09-27 15:16:00,
2013-09-27 11:21:00,62.0,54.0,29.70,NNE,22,7.0,12.0,76,0.00,,,0.00,Rainwise IP-100,2013-09-27 15:21:00,
2013-09-27 11:26:00,62.0,54.0,29.70,NW,315,9.0,13.0,77,0.00,,,0.00,Rainwise IP-100,2013-09-27 15:26:00,
2013-09-27 11:31:00,62.0,54.0,29.70,North,360,6.0,11.0,77,0.00,,,0.00,Rainwise IP-100,2013-09-27 15:31:00,
2013-09-27 11:36:00,62.0,54.0,29.70,NNE,22,6.0,10.0,77,0.00,,,0.00,Rainwise IP-100,2013-09-27 15:36:00,
2013-09-27 11:41:00,62.0,54.0,29.70,ENE,67,6.0,13.0,77,0.00,,,0.00,Rainwise IP-100,2013-09-27 15:41:00,
2013-09-27 11:46:00,62.0,54.0,29.70,North,360,6.0,10.0,75,0.00,,,0.00,Rainwise IP-100,2013-09-27 15:46:00,
2013-09-27 11:51:00,62.0,54.0,29.71,East,90,3.0,10.0,76,0.00,,,0.00,Rainwise IP-100,2013-09-27 15:51:00,
2013-09-27 11:56:00,63.0,54.0,29.71,North,360,4.0,11.0,74,0.00,,,0.00,Rainwise IP-100,2013-09-27 15:56:00,
2013-09-27 12:01:00,63.0,54.0,29.70,WNW,292,4.0,10.0,74,0.00,,,0.00,Rainwise IP-100,2013-09-27 16:01:00,
2013-09-27 12:06:00,63.0,55.0,29.70,North,360,6.0,10.0,75,0.00,,,0.00,Rainwise IP-100,2013-09-27 16:06:00,
2013-09-27 12:11:00,63.0,55.0,29.70,North,360,4.0,9.0,75,0.00,,,0.00,Rainwise IP-100,2013-09-27 16:11:00,
2013-09-27 12:16:00,63.0,54.0,29.70,ENE,67,7.0,10.0,73,0.00,,,0.00,Rainwise IP-100,2013-09-27 16:16:00,
2013-09-27 12:21:00,63.0,54.0,29.71,NNE,22,4.0,10.0,73,0.00,,,0.00,Rainwise IP-100,2013-09-27 16:21:00,
2013-09-27 12:26:00,63.0,54.0,29.71,NE,45,6.0,9.0,74,0.00,,,0.00,Rainwise IP-100,2013-09-27 16:26:00,
2013-09-27 12:31:00,64.0,55.0,29.69,WNW,292,5.0,10.0,73,0.00,,,0.00,Rainwise IP-100,2013-09-27 16:31:00,
2013-09-27 12:36:00,64.0,54.0,29.69,NE,45,6.0,10.0,72,0.00,,,0.00,Rainwise IP-100,2013-09-27 16:36:00,
2013-09-27 12:41:00,63.0,54.0,29.69,NNW,337,9.0,10.0,72,0.00,,,0.00,Rainwise IP-100,2013-09-27 16:41:00,
2013-09-27 12:46:00,63.0,55.0,29.69,North,360,3.0,11.0,75,0.00,,,0.00,Rainwise IP-100,2013-09-27 16:46:00,
2013-09-27 12:51:00,64.0,54.0,29.69,North,360,5.0,8.0,71,0.00,,,0.00,Rainwise IP-100,2013-09-27 16:51:00,
2013-09-27 12:56:00,64.0,55.0,29.69,NNE,22,6.0,10.0,73,0.00,,,0.00,Rainwise IP-100,2013-09-27 16:56:00,
2013-09-27 13:01:00,63.0,54.0,29.69,NE,45,3.0,11.0,74,0.00,,,0.00,Rainwise IP-100,2013-09-27 17:01:00,
2013-09-27 13:06:00,63.0,54.0,29.69,North,360,5.0,10.0,73,0.00,,,0.00,Rainwise IP-100,2013-09-27 17:06:00,
2013-09-27 13:11:00,63.0,54.0,29.69,NE,45,7.0,11.0,72,0.00,,,0.00,Rainwise IP-100,2013-09-27 17:11:00,
2013-09-27 13:16:00,64.0,55.0,29.69,NNW,337,4.0,9.0,74,0.00,,,0.00,Rainwise IP-100,2013-09-27 17:16:00,
2013-09-27 13:21:00,64.0,53.0,29.69,NNE,22,7.0,13.0,68,0.00,,,0.00,Rainwise IP-100,2013-09-27 17:21:00,
2013-09-27 13:26:00,64.0,53.0,29.69,NW,315,6.0,11.0,69,0.00,,,0.00,Rainwise IP-100,2013-09-27 17:26:00,
2013-09-27 13:31:00,64.0,54.0,29.68,NNE,22,4.0,13.0,70,0.00,,,0.00,Rainwise IP-100,2013-09-27 17:31:00,
2013-09-27 13:36:00,64.0,53.0,29.68,NNE,22,7.0,12.0,68,0.00,,,0.00,Rainwise IP-100,2013-09-27 17:36:00,
2013-09-27 13:41:00,64.0,54.0,29.68,WNW,292,2.0,9.0,71,0.00,,,0.00,Rainwise IP-100,2013-09-27 17:41:00,
2013-09-27 13:46:00,64.0,54.0,29.68,NNW,337,2.0,8.0,72,0.00,,,0.00,Rainwise IP-100,2013-09-27 17:46:00,
2013-09-27 13:51:00,64.0,53.0,29.68,North,360,4.0,10.0,69,0.00,,,0.00,Rainwise IP-100,2013-09-27 17:51:00,
2013-09-27 13:56:00,65.0,54.0,29.68,NNW,337,8.0,8.0,68,0.00,,,0.00,Rainwise IP-100,2013-09-27 17:56:00,
2013-09-27 14:01:00,64.0,53.0,29.68,North,360,5.0,9.0,68,0.00,,,0.00,Rainwise IP-100,2013-09-27 18:01:00,
2013-09-27 14:06:00,64.0,53.0,29.68,ENE,67,8.0,9.0,67,0.00,,,0.00,Rainwise IP-100,2013-09-27 18:06:00,
2013-09-27 14:11:00,64.0,54.0,29.68,NNW,337,5.0,9.0,70,0.00,,,0.00,Rainwise IP-100,2013-09-27 18:11:00,
2013-09-27 14:16:00,64.0,54.0,29.68,NE,45,2.0,9.0,71,0.00,,,0.00,Rainwise IP-100,2013-09-27 18:16:00,
2013-09-27 14:21:00,64.0,54.0,29.68,ENE,67,3.0,8.0,71,0.00,,,0.00,Rainwise IP-100,2013-09-27 18:21:00,
2013-09-27 14:26:00,64.0,54.0,29.68,NNE,22,3.0,8.0,71,0.00,,,0.00,Rainwise IP-100,2013-09-27 18:26:00,
2013-09-27 14:31:00,64.0,54.0,29.67,East,90,7.0,8.0,71,0.00,,,0.00,Rainwise IP-100,2013-09-27 18:31:00,
2013-09-27 14:36:00,64.0,53.0,29.67,North,360,7.0,9.0,69,0.00,,,0.00,Rainwise IP-100,2013-09-27 18:36:00,
2013-09-27 14:41:00,64.0,55.0,29.68,NE,45,5.0,9.0,73,0.00,,,0.00,Rainwise IP-100,2013-09-27 18:41:00,
2013-09-27 14:46:00,65.0,55.0,29.68,SE,135,2.0,5.0,71,0.00,,,0.00,Rainwise IP-100,2013-09-27 18:46:00,
2013-09-27 14:51:00,65.0,55.0,29.67,NE,45,2.0,8.0,71,0.00,,,0.00,Rainwise IP-100,2013-09-27 18:51:00,
2013-09-27 14:56:00,65.0,54.0,29.67,North,360,1.0,7.0,70,0.00,,,0.00,Rainwise IP-100,2013-09-27 18:56:00,
2013-09-27 15:01:00,65.0,55.0,29.68,NNE,22,6.0,6.0,71,0.00,,,0.00,Rainwise IP-100,2013-09-27 19:01:00,
2013-09-27 15:06:00,66.0,56.0,29.68,ENE,67,2.0,7.0,71,0.00,,,0.00,Rainwise IP-100,2013-09-27 19:06:00,
2013-09-27 15:11:00,66.0,54.0,29.68,SE,135,4.0,6.0,66,0.00,,,0.00,Rainwise IP-100,2013-09-27 19:11:00,
2013-09-27 15:16:00,65.0,55.0,29.68,ENE,67,3.0,6.0,71,0.00,,,0.00,Rainwise IP-100,2013-09-27 19:16:00,
2013-09-27 15:21:00,65.0,54.0,29.68,NNE,22,6.0,8.0,69,0.00,,,0.00,Rainwise IP-100,2013-09-27 19:21:00,
2013-09-27 15:26:00,66.0,59.0,29.68,NNE,22,1.0,6.0,80,0.00,,,0.00,Rainwise IP-100,2013-09-27 19:26:00,
2013-09-27 15:31:00,67.0,55.0,29.67,SE,135,3.0,6.0,66,0.00,,,0.00,Rainwise IP-100,2013-09-27 19:31:00,
2013-09-27 15:36:00,67.0,54.0,29.67,NNW,337,1.0,9.0,63,0.00,,,0.00,Rainwise IP-100,2013-09-27 19:36:00,
2013-09-27 15:41:00,68.0,54.0,29.67,West,270,4.0,4.0,62,0.00,,,0.00,Rainwise IP-100,2013-09-27 19:41:00,
2013-09-27 15:46:00,68.0,54.0,29.67,SSW,202,0.0,5.0,62,0.00,,,0.00,Rainwise IP-100,2013-09-27 19:46:00,
2013-09-27 15:51:00,68.0,53.0,29.68,SSW,202,0.0,2.0,59,0.00,,,0.00,Rainwise IP-100,2013-09-27 19:51:00,
2013-09-27 15:56:00,68.0,53.0,29.68,SE,135,0.0,5.0,58,0.00,,,0.00,Rainwise IP-100,2013-09-27 19:56:00,
2013-09-27 16:01:00,66.0,53.0,29.68,North,360,3.0,6.0,64,0.00,,,0.00,Rainwise IP-100,2013-09-27 20:01:00,
2013-09-27 16:06:00,66.0,54.0,29.68,NNW,337,3.0,6.0,66,0.00,,,0.00,Rainwise IP-100,2013-09-27 20:06:00,
2013-09-27 16:11:00,66.0,54.0,29.67,North,360,6.0,7.0,66,0.00,,,0.00,Rainwise IP-100,2013-09-27 20:11:00,
2013-09-27 16:16:00,66.0,51.0,29.67,NNE,22,1.0,6.0,60,0.00,,,0.00,Rainwise IP-100,2013-09-27 20:16:00,
2013-09-27 16:21:00,67.0,57.0,29.68,NNE,22,0.0,3.0,72,0.00,,,0.00,Rainwise IP-100,2013-09-27 20:21:00,
2013-09-27 16:26:00,67.0,54.0,29.68,NNE,22,0.0,4.0,63,0.00,,,0.00,Rainwise IP-100,2013-09-27 20:26:00,
2013-09-27 16:31:00,68.0,54.0,29.68,NNE,22,0.0,1.0,63,0.00,,,0.00,Rainwise IP-100,2013-09-27 20:31:00,
2013-09-27 16:36:00,69.0,54.0,29.68,NE,45,3.0,6.0,59,0.00,,,0.00,Rainwise IP-100,2013-09-27 20:36:00,
2013-09-27 16:41:00,69.0,54.0,29.67,ENE,67,0.0,6.0,60,0.00,,,0.00,Rainwise IP-100,2013-09-27 20:41:00,
2013-09-27 16:46:00,70.0,55.0,29.67,ENE,67,0.0,1.0,60,0.00,,,0.00,Rainwise IP-100,2013-09-27 20:46:00,
2013-09-27 16:51:00,71.0,54.0,29.68,ENE,67,0.0,1.0,56,0.00,,,0.00,Rainwise IP-100,2013-09-27 20:51:00,
2013-09-27 16:56:00,71.0,53.0,29.68,North,360,4.0,6.0,53,0.00,,,0.00,Rainwise IP-100,2013-09-27 20:56:00,
2013-09-27 17:01:00,71.0,56.0,29.68,NW,315,1.0,5.0,59,0.00,,,0.00,Rainwise IP-100,2013-09-27 21:01:00,
2013-09-27 17:06:00,69.0,53.0,29.68,North,360,1.0,10.0,58,0.00,,,0.00,Rainwise IP-100,2013-09-27 21:06:00,
2013-09-27 17:11:00,69.0,54.0,29.68,NNW,337,0.0,3.0,60,0.00,,,0.00,Rainwise IP-100,2013-09-27 21:11:00,
2013-09-27 17:16:00,69.0,51.0,29.68,NNW,337,0.0,2.0,54,0.00,,,0.00,Rainwise IP-100,2013-09-27 21:16:00,
2013-09-27 17:21:00,69.0,52.0,29.68,NNW,337,0.0,2.0,55,0.00,,,0.00,Rainwise IP-100,2013-09-27 21:21:00,
2013-09-27 17:26:00,69.0,51.0,29.68,NNW,337,0.0,0.0,53,0.00,,,0.00,Rainwise IP-100,2013-09-27 21:26:00,
2013-09-27 17:31:00,68.0,53.0,29.68,NNW,337,0.0,0.0,60,0.00,,,0.00,Rainwise IP-100,2013-09-27 21:31:00,
2013-09-27 17:36:00,67.0,54.0,29.68,NNW,337,0.0,0.0,64,0.00,,,0.00,Rainwise IP-100,2013-09-27 21:36:00,
2013-09-27 17:41:00,66.0,55.0,29.69,NNW,337,0.0,0.0,69,0.00,,,0.00,Rainwise IP-100,2013-09-27 21:41:00,
2013-09-27 17:46:00,65.0,51.0,29.69,NNW,337,0.0,0.0,61,0.00,,,0.00,Rainwise IP-100,2013-09-27 21:46:00,
2013-09-27 17:51:00,64.0,54.0,29.69,NNW,337,0.0,0.0,72,0.00,,,0.00,Rainwise IP-100,2013-09-27 21:51:00,
2013-09-27 17:56:00,63.0,56.0,29.69,NNW,337,0.0,0.0,80,0.00,,,0.00,Rainwise IP-100,2013-09-27 21:56:00,
2013-09-27 18:01:00,62.0,56.0,29.69,NNW,337,0.0,0.0,80,0.00,,,0.00,Rainwise IP-100,2013-09-27 22:01:00,
2013-09-27 18:06:00,61.0,56.0,29.69,NNW,337,0.0,0.0,85,0.00,,,0.00,Rainwise IP-100,2013-09-27 22:06:00,
2013-09-27 18:11:00,60.0,56.0,29.69,NNW,337,0.0,0.0,87,0.00,,,0.00,Rainwise IP-100,2013-09-27 22:11:00,
2013-09-27 18:16:00,60.0,56.0,29.69,NNW,337,0.0,0.0,89,0.00,,,0.00,Rainwise IP-100,2013-09-27 22:16:00,
2013-09-27 18:21:00,59.0,56.0,29.69,NNW,337,0.0,0.0,91,0.00,,,0.00,Rainwise IP-100,2013-09-27 22:21:00,
2013-09-27 18:26:00,58.0,56.0,29.69,NNW,337,0.0,0.0,92,0.00,,,0.00,Rainwise IP-100,2013-09-27 22:26:00,
2013-09-27 18:31:00,58.0,56.0,29.70,NNW,337,0.0,0.0,93,0.00,,,0.00,Rainwise IP-100,2013-09-27 22:31:00,
2013-09-27 18:36:00,57.0,56.0,29.70,NNW,337,0.0,0.0,96,0.00,,,0.00,Rainwise IP-100,2013-09-27 22:36:00,
2013-09-27 18:41:00,57.0,56.0,29.70,NNW,337,0.0,0.0,96,0.00,,,0.00,Rainwise IP-100,2013-09-27 22:41:00,
2013-09-27 18:46:00,56.0,54.0,29.70,NNW,337,0.0,0.0,96,0.00,,,0.00,Rainwise IP-100,2013-09-27 22:46:00,
2013-09-27 18:51:00,56.0,55.0,29.70,NNW,337,0.0,0.0,97,0.00,,,0.00,Rainwise IP-100,2013-09-27 22:51:00,
2013-09-27 18:56:00,56.0,55.0,29.70,NNW,337,0.0,0.0,97,0.00,,,0.00,Rainwise IP-100,2013-09-27 22:56:00,
2013-09-27 19:01:00,56.0,55.0,29.69,NNW,337,0.0,0.0,97,0.00,,,0.00,Rainwise IP-100,2013-09-27 23:01:00,
2013-09-27 19:06:00,55.0,54.0,29.69,NNW,337,0.0,0.0,97,0.00,,,0.00,Rainwise IP-100,2013-09-27 23:06:00,
2013-09-27 19:11:00,55.0,54.0,29.70,NNW,337,0.0,0.0,97,0.00,,,0.00,Rainwise IP-100,2013-09-27 23:11:00,
2013-09-27 19:16:00,55.0,54.0,29.70,NNW,337,0.0,0.0,97,0.00,,,0.00,Rainwise IP-100,2013-09-27 23:16:00,
2013-09-27 19:21:00,55.0,54.0,29.69,NNW,337,0.0,0.0,97,0.00,,,0.00,Rainwise IP-100,2013-09-27 23:21:00,
2013-09-27 19:26:00,54.0,53.0,29.69,NNW,337,0.0,0.0,97,0.00,,,0.00,Rainwise IP-100,2013-09-27 23:26:00,
2013-09-27 19:31:00,54.0,53.0,29.70,NNW,337,0.0,0.0,97,0.00,,,0.00,Rainwise IP-100,2013-09-27 23:31:00,
2013-09-27 19:36:00,54.0,53.0,29.70,NNW,337,0.0,1.0,97,0.00,,,0.00,Rainwise IP-100,2013-09-27 23:36:00,
2013-09-27 19:41:00,54.0,53.0,29.70,NNW,337,0.0,1.0,97,0.00,,,0.00,Rainwise IP-100,2013-09-27 23:41:00,
2013-09-27 19:46:00,54.0,53.0,29.70,NNW,337,0.0,0.0,97,0.00,,,0.00,Rainwise IP-100,2013-09-27 23:46:00,
2013-09-27 19:51:00,53.0,52.0,29.70,NNW,337,0.0,0.0,97,0.00,,,0.00,Rainwise IP-100,2013-09-27 23:51:00,
2013-09-27 19:56:00,53.0,52.0,29.70,NNW,337,0.0,0.0,97,0.00,,,0.00,Rainwise IP-100,2013-09-27 23:56:00,
2013-09-27 20:01:00,54.0,53.0,29.70,NNW,337,0.0,0.0,97,0.00,,,0.00,Rainwise IP-100,2013-09-28 00:01:00,
2013-09-27 20:06:00,53.0,52.0,29.70,NNW,337,0.0,0.0,97,0.00,,,0.00,Rainwise IP-100,2013-09-28 00:06:00,
2013-09-27 20:11:00,53.0,52.0,29.70,NNW,337,0.0,0.0,97,0.00,,,0.00,Rainwise IP-100,2013-09-28 00:11:00,
2013-09-27 20:16:00,53.0,52.0,29.70,NNW,337,0.0,0.0,97,0.00,,,0.00,Rainwise IP-100,2013-09-28 00:16:00,
2013-09-27 20:21:00,53.0,52.0,29.70,NNW,337,0.0,0.0,97,0.00,,,0.00,Rainwise IP-100,2013-09-28 00:21:00,
2013-09-27 20:26:00,53.0,52.0,29.70,NNW,337,0.0,0.0,97,0.00,,,0.00,Rainwise IP-100,2013-09-28 00:26:00,
2013-09-27 20:31:00,53.0,52.0,29.70,NNW,337,0.0,0.0,97,0.00,,,0.00,Rainwise IP-100,2013-09-28 00:31:00,
2013-09-27 20:36:00,53.0,52.0,29.70,NNW,337,0.0,0.0,97,0.00,,,0.00,Rainwise IP-100,2013-09-28 00:36:00,
2013-09-27 20:41:00,53.0,52.0,29.71,NNW,337,0.0,0.0,97,0.00,,,0.00,Rainwise IP-100,2013-09-28 00:41:00,
2013-09-27 20:46:00,52.0,51.0,29.71,NNW,337,0.0,0.0,97,0.00,,,0.00,Rainwise IP-100,2013-09-28 00:46:00,
2013-09-27 20:51:00,52.0,51.0,29.71,NNW,337,0.0,0.0,97,0.00,,,0.00,Rainwise IP-100,2013-09-28 00:51:00,
2013-09-27 20:56:00,52.0,51.0,29.71,NNW,337,0.0,0.0,97,0.00,,,0.00,Rainwise IP-100,2013-09-28 00:56:00,
2013-09-27 21:01:00,52.0,51.0,29.71,NNW,337,0.0,0.0,97,0.00,,,0.00,Rainwise IP-100,2013-09-28 01:01:00,
2013-09-27 21:06:00,52.0,51.0,29.71,NNW,337,0.0,0.0,97,0.00,,,0.00,Rainwise IP-100,2013-09-28 01:06:00,
2013-09-27 21:11:00,52.0,51.0,29.71,NNW,337,0.0,0.0,97,0.00,,,0.00,Rainwise IP-100,2013-09-28 01:11:00,
2013-09-27 21:16:00,52.0,51.0,29.71,NNW,337,0.0,0.0,97,0.00,,,0.00,Rainwise IP-100,2013-09-28 01:16:00,
2013-09-27 21:21:00,52.0,51.0,29.71,NNW,337,0.0,0.0,97,0.00,,,0.00,Rainwise IP-100,2013-09-28 01:21:00,
2013-09-27 21:26:00,52.0,51.0,29.71,NNW,337,0.0,0.0,97,0.00,,,0.00,Rainwise IP-100,2013-09-28 01:26:00,
2013-09-27 21:31:00,52.0,51.0,29.71,NNW,337,0.0,0.0,97,0.00,,,0.00,Rainwise IP-100,2013-09-28 01:31:00,
2013-09-27 21:36:00,51.0,50.0,29.71,NNW,337,0.0,0.0,97,0.00,,,0.00,Rainwise IP-100,2013-09-28 01:36:00,
2013-09-27 21:41:00,51.0,50.0,29.72,NNW,337,0.0,0.0,97,0.00,,,0.00,Rainwise IP-100,2013-09-28 01:41:00,
2013-09-27 21:46:00,51.0,50.0,29.72,NNW,337,0.0,0.0,97,0.00,,,0.00,Rainwise IP-100,2013-09-28 01:46:00,
2013-09-27 21:51:00,51.0,50.0,29.72,NNW,337,0.0,0.0,97,0.00,,,0.00,Rainwise IP-100,2013-09-28 01:51:00,
2013-09-27 21:56:00,51.0,50.0,29.72,NNW,337,0.0,0.0,97,0.00,,,0.00,Rainwise IP-100,2013-09-28 01:56:00,
2013-09-27 22:01:00,51.0,50.0,29.72,NNW,337,0.0,0.0,97,0.00,,,0.00,Rainwise IP-100,2013-09-28 02:01:00,
2013-09-27 22:06:00,51.0,50.0,29.72,NNW,337,0.0,0.0,97,0.00,,,0.00,Rainwise IP-100,2013-09-28 02:06:00,
2013-09-27 22:11:00,51.0,50.0,29.72,NNW,337,0.0,1.0,97,0.00,,,0.00,Rainwise IP-100,2013-09-28 02:11:00,
2013-09-27 22:16:00,51.0,50.0,29.72,NNW,337,0.0,2.0,97,0.00,,,0.00,Rainwise IP-100,2013-09-28 02:16:00,
2013-09-27 22:21:00,50.0,49.0,29.73,NNW,337,0.0,0.0,97,0.00,,,0.00,Rainwise IP-100,2013-09-28 02:21:00,
2013-09-27 22:26:00,50.0,49.0,29.73,NNW,337,0.0,0.0,97,0.00,,,0.00,Rainwise IP-100,2013-09-28 02:26:00,
2013-09-27 22:31:00,51.0,50.0,29.72,NNW,337,0.0,0.0,97,0.00,,,0.00,Rainwise IP-100,2013-09-28 02:31:00,
2013-09-27 22:36:00,51.0,50.0,29.72,NNW,337,0.0,0.0,97,0.00,,,0.00,Rainwise IP-100,2013-09-28 02:36:00,
2013-09-27 22:41:00,51.0,50.0,29.72,NNW,337,0.0,0.0,97,0.00,,,0.00,Rainwise IP-100,2013-09-28 02:41:00,
2013-09-27 22:46:00,51.0,50.0,29.72,NNW,337,0.0,0.0,97,0.00,,,0.00,Rainwise IP-100,2013-09-28 02:46:00,
2013-09-27 22:51:00,51.0,50.0,29.72,NNW,337,0.0,0.0,97,0.00,,,0.00,Rainwise IP-100,2013-09-28 02:51:00,
2013-09-27 22:56:00,51.0,50.0,29.72,NNW,337,0.0,0.0,97,0.00,,,0.00,Rainwise IP-100,2013-09-28 02:56:00,
2013-09-27 23:01:00,51.0,50.0,29.72,NNW,337,0.0,0.0,97,0.00,,,0.00,Rainwise IP-100,2013-09-28 03:01:00,
2013-09-27 23:06:00,51.0,50.0,29.72,NNW,337,0.0,0.0,97,0.00,,,0.00,Rainwise IP-100,2013-09-28 03:06:00,
2013-09-27 23:11:00,51.0,50.0,29.72,NNW,337,0.0,0.0,97,0.00,,,0.00,Rainwise IP-100,2013-09-28 03:11:00,
2013-09-27 23:16:00,50.0,49.0,29.72,NNW,337,0.0,0.0,97,0.00,,,0.00,Rainwise IP-100,2013-09-28 03:16:00,
2013-09-27 23:21:00,50.0,49.0,29.73,NNW,337,0.0,0.0,97,0.00,,,0.00,Rainwise IP-100,2013-09-28 03:21:00,
2013-09-27 23:26:00,50.0,49.0,29.73,NNW,337,0.0,0.0,97,0.00,,,0.00,Rainwise IP-100,2013-09-28 03:26:00,
2013-09-27 23:31:00,50.0,49.0,29.73,NNW,337,0.0,0.0,97,0.00,,,0.00,Rainwise IP-100,2013-09-28 03:31:00,
2013-09-27 23:36:00,50.0,49.0,29.73,NNW,337,0.0,0.0,97,0.00,,,0.00,Rainwise IP-100,2013-09-28 03:36:00,
2013-09-27 23:41:00,50.0,49.0,29.72,NNW,337,0.0,0.0,97,0.00,,,0.00,Rainwise IP-100,2013-09-28 03:41:00,
2013-09-27 23:46:00,50.0,49.0,29.72,NNW,337,0.0,0.0,97,0.00,,,0.00,Rainwise IP-100,2013-09-28 03:46:00,
2013-09-27 23:51:00,50.0,49.0,29.73,NNW,337,0.0,0.0,97,0.00,,,0.00,Rainwise IP-100,2013-09-28 03:51:00,
2013-09-27 23:56:00,50.0,49.0,29.73,NNW,337,0.0,0.0,97,0.00,,,0.00,Rainwise IP-100,2013-09-28 03:56:00,